Time,TemperatureF,DewpointF,PressureIn,WindDirection,WindDirectionDegrees,WindSpeedMPH,WindSpeedGustMPH,Humidity,HourlyPrecipIn,Conditions,Clouds,dailyrainin,SoftwareType,DateUTC
2013-05-03 00:02:00,44.0,-99.9,29.77,SSE,158,9.0,11.0,-999,-99.99,,,-99.99,,2013-05-03 08:02:00,
2013-05-03 00:12:00,43.0,-99.9,29.77,South,186,6.0,8.0,-999,-99.99,,,-99.99,,2013-05-03 08:12:00,
2013-05-03 00:22:00,44.0,-99.9,29.77,South,183,5.0,9.0,-999,-99.99,,,-99.99,,2013-05-03 08:22:00,
2013-05-03 00:32:00,43.0,-99.9,29.77,South,177,8.0,9.0,-999,-99.99,,,-99.99,,2013-05-03 08:32:00,
2013-05-03 00:42:00,43.0,-99.9,29.78,SSE,165,7.0,10.0,-999,-99.99,,,-99.99,,2013-05-03 08:42:00,
2013-05-03 00:53:00,43.0,-99.9,29.78,SSE,165,7.0,8.0,-999,-99.99,,,-99.99,,2013-05-03 08:53:00,
2013-05-03 01:01:00,43.0,-99.9,29.78,SSE,167,7.0,9.0,-999,-99.99,,,-99.99,,2013-05-03 09:01:00,
2013-05-03 01:12:00,43.0,-99.9,29.78,SSE,147,4.0,8.0,-999,-99.99,,,-99.99,,2013-05-03 09:12:00,
2013-05-03 01:21:00,43.0,-99.9,29.78,ESE,104,3.0,6.0,-999,-99.99,,,-99.99,,2013-05-03 09:21:00,
2013-05-03 01:33:00,43.0,-99.9,29.78,ESE,109,3.0,6.0,-999,-99.99,,,-99.99,,2013-05-03 09:33:00,
2013-05-03 01:42:00,43.0,-99.9,29.79,ESE,123,3.0,5.0,-999,-99.99,,,-99.99,,2013-05-03 09:42:00,
2013-05-03 01:53:00,43.0,-99.9,29.79,ESE,119,2.0,5.0,-999,-99.99,,,-99.99,,2013-05-03 09:53:00,
2013-05-03 02:03:00,43.0,-99.9,29.79,SSE,156,2.0,3.0,-999,-99.99,,,-99.99,,2013-05-03 10:03:00,
2013-05-03 02:13:00,43.0,-99.9,29.79,SSW,193,4.0,6.0,-999,-99.99,,,-99.99,,2013-05-03 10:13:00,
2013-05-03 02:22:00,43.0,-99.9,29.79,SSW,202,4.0,5.0,-999,-99.99,,,-99.99,,2013-05-03 10:22:00,
2013-05-03 02:32:00,43.0,-99.9,29.79,SSW,211,4.0,7.0,-999,-99.99,,,-99.99,,2013-05-03 10:32:00,
2013-05-03 02:42:00,43.0,-99.9,29.79,SSW,200,5.0,7.0,-999,-99.99,,,-99.99,,2013-05-03 10:42:00,
2013-05-03 02:52:00,43.0,-99.9,29.80,SSW,201,4.0,6.0,-999,-99.99,,,-99.99,,2013-05-03 10:52:00,
2013-05-03 03:02:00,43.0,-99.9,29.80,SSW,195,3.0,6.0,-999,-99.99,,,-99.99,,2013-05-03 11:02:00,
2013-05-03 03:11:00,43.0,-99.9,29.80,South,176,4.0,6.0,-999,-99.99,,,-99.99,,2013-05-03 11:11:00,
2013-05-03 03:22:00,43.0,-99.9,29.80,South,181,4.0,6.0,-999,-99.99,,,-99.99,,2013-05-03 11:22:00,
2013-05-03 03:32:00,43.0,-99.9,29.80,SSW,199,5.0,6.0,-999,-99.99,,,-99.99,,2013-05-03 11:32:00,
2013-05-03 03:42:00,43.0,-99.9,29.80,SSE,167,8.0,11.0,-999,-99.99,,,-99.99,,2013-05-03 11:42:00,
2013-05-03 03:52:00,43.0,-99.9,29.80,SSE,159,7.0,9.0,-999,-99.99,,,-99.99,,2013-05-03 11:52:00,
2013-05-03 04:02:00,43.0,-99.9,29.79,SSE,165,9.0,10.0,-999,-99.99,,,-99.99,,2013-05-03 12:02:00,
2013-05-03 04:12:00,43.0,-99.9,29.79,SSE,159,5.0,10.0,-999,-99.99,,,-99.99,,2013-05-03 12:12:00,
2013-05-03 04:22:00,43.0,-99.9,29.80,South,185,6.0,8.0,-999,-99.99,,,-99.99,,2013-05-03 12:22:00,
2013-05-03 04:32:00,43.0,-99.9,29.80,SSE,166,7.0,9.0,-999,-99.99,,,-99.99,,2013-05-03 12:32:00,
2013-05-03 04:42:00,43.0,-99.9,29.80,SSW,194,4.0,6.0,-999,-99.99,,,-99.99,,2013-05-03 12:42:00,
2013-05-03 04:52:00,43.0,-99.9,29.80,South,186,3.0,5.0,-999,-99.99,,,-99.99,,2013-05-03 12:52:00,
2013-05-03 05:01:00,43.0,-99.9,29.80,SSE,151,4.0,6.0,-999,-99.99,,,-99.99,,2013-05-03 13:01:00,
2013-05-03 05:11:00,42.0,-99.9,29.80,East,97,2.0,3.0,-999,-99.99,,,-99.99,,2013-05-03 13:11:00,
2013-05-03 05:22:00,43.0,-99.9,29.80,SSE,150,3.0,4.0,-999,-99.99,,,-99.99,,2013-05-03 13:22:00,
2013-05-03 05:32:00,43.0,-99.9,29.80,SSE,159,4.0,6.0,-999,-99.99,,,-99.99,,2013-05-03 13:32:00,
2013-05-03 05:42:00,43.0,-99.9,29.80,SSE,161,4.0,8.0,-999,-99.99,,,-99.99,,2013-05-03 13:42:00,
2013-05-03 05:52:00,43.0,-99.9,29.80,SSW,209,4.0,6.0,-999,-99.99,,,-99.99,,2013-05-03 13:52:00,
2013-05-03 06:02:00,43.0,-99.9,29.81,SSW,196,4.0,6.0,-999,-99.99,,,-99.99,,2013-05-03 14:02:00,
2013-05-03 06:11:00,42.0,-99.9,29.81,South,176,4.0,9.0,-999,-99.99,,,-99.99,,2013-05-03 14:11:00,
2013-05-03 06:22:00,43.0,-99.9,29.81,South,189,3.0,4.0,-999,-99.99,,,-99.99,,2013-05-03 14:22:00,
2013-05-03 06:32:00,43.0,-99.9,29.81,SSW,205,4.0,5.0,-999,-99.99,,,-99.99,,2013-05-03 14:32:00,
2013-05-03 06:42:00,42.0,-99.9,29.81,North,359,1.0,4.0,-999,-99.99,,,-99.99,,2013-05-03 14:42:00,
2013-05-03 06:52:00,41.0,-99.9,29.81,North,1,4.0,5.0,-999,-99.99,,,-99.99,,2013-05-03 14:52:00,
2013-05-03 07:01:00,41.0,-99.9,29.81,NNE,19,3.0,4.0,-999,-99.99,,,-99.99,,2013-05-03 15:01:00,
2013-05-03 07:11:00,41.0,-99.9,29.81,NNE,17,2.0,4.0,-999,-99.99,,,-99.99,,2013-05-03 15:11:00,
2013-05-03 07:22:00,41.0,-99.9,29.82,NE,34,3.0,4.0,-999,-99.99,,,-99.99,,2013-05-03 15:22:00,
2013-05-03 07:32:00,41.0,-99.9,29.82,NNE,25,3.0,4.0,-999,-99.99,,,-99.99,,2013-05-03 15:32:00,
2013-05-03 07:43:00,42.0,-99.9,29.83,North,354,2.0,5.0,-999,-99.99,,,-99.99,,2013-05-03 15:43:00,
2013-05-03 07:53:00,42.0,-99.9,29.83,North,1,3.0,4.0,-999,-99.99,,,-99.99,,2013-05-03 15:53:00,
2013-05-03 08:03:00,42.0,-99.9,29.83,NNE,13,3.0,4.0,-999,-99.99,,,-99.99,,2013-05-03 16:03:00,
2013-05-03 08:13:00,42.0,-99.9,29.83,NNE,30,2.0,3.0,-999,-99.99,,,-99.99,,2013-05-03 16:13:00,
2013-05-03 08:23:00,42.0,-99.9,29.84,NE,41,2.0,3.0,-999,-99.99,,,-99.99,,2013-05-03 16:23:00,
2013-05-03 08:33:00,42.0,-99.9,29.84,North,11,3.0,4.0,-999,-99.99,,,-99.99,,2013-05-03 16:33:00,
2013-05-03 08:42:00,43.0,-99.9,29.84,North,11,1.0,3.0,-999,-99.99,,,-99.99,,2013-05-03 16:42:00,
2013-05-03 08:52:00,42.0,-99.9,29.84,North,9,3.0,5.0,-999,-99.99,,,-99.99,,2013-05-03 16:52:00,
2013-05-03 09:02:00,43.0,-99.9,29.85,North,352,2.0,5.0,-999,-99.99,,,-99.99,,2013-05-03 17:02:00,
2013-05-03 09:12:00,43.0,-99.9,29.85,North,357,2.0,4.0,-999,-99.99,,,-99.99,,2013-05-03 17:12:00,
2013-05-03 09:23:00,43.0,-99.9,29.85,North,357,2.0,4.0,-999,-99.99,,,-99.99,,2013-05-03 17:23:00,
2013-05-03 09:32:00,43.0,-99.9,29.85,NNW,345,4.0,6.0,-999,-99.99,,,-99.99,,2013-05-03 17:32:00,
2013-05-03 09:42:00,42.0,-99.9,29.85,NNW,343,5.0,7.0,-999,-99.99,,,-99.99,,2013-05-03 17:42:00,
2013-05-03 09:52:00,42.0,-99.9,29.85,NNW,341,6.0,7.0,-999,-99.99,,,-99.99,,2013-05-03 17:52:00,
2013-05-03 10:01:00,43.0,-99.9,29.86,NNW,343,5.0,6.0,-999,-99.99,,,-99.99,,2013-05-03 18:01:00,
2013-05-03 10:12:00,43.0,-99.9,29.86,NNW,347,4.0,6.0,-999,-99.99,,,-99.99,,2013-05-03 18:12:00,
2013-05-03 10:22:00,43.0,-99.9,29.86,North,349,4.0,5.0,-999,-99.99,,,-99.99,,2013-05-03 18:22:00,
2013-05-03 10:32:00,43.0,-99.9,29.86,North,349,1.0,4.0,-999,-99.99,,,-99.99,,2013-05-03 18:32:00,
2013-05-03 10:42:00,42.0,-99.9,29.86,North,349,4.0,5.0,-999,-99.99,,,-99.99,,2013-05-03 18:42:00,
2013-05-03 10:52:00,42.0,-99.9,29.87,North,349,4.0,5.0,-999,-99.99,,,-99.99,,2013-05-03 18:52:00,
2013-05-03 11:01:00,42.0,-99.9,29.87,North,353,4.0,6.0,-999,-99.99,,,-99.99,,2013-05-03 19:01:00,
2013-05-03 11:11:00,42.0,-99.9,29.87,North,354,4.0,7.0,-999,-99.99,,,-99.99,,2013-05-03 19:11:00,
2013-05-03 11:22:00,42.0,-99.9,29.88,NNW,342,4.0,8.0,-999,-99.99,,,-99.99,,2013-05-03 19:22:00,
2013-05-03 11:32:00,42.0,-99.9,29.88,NNW,327,2.0,5.0,-999,-99.99,,,-99.99,,2013-05-03 19:32:00,
2013-05-03 11:42:00,41.0,-99.9,29.88,SSE,166,3.0,4.0,-999,-99.99,,,-99.99,,2013-05-03 19:42:00,
2013-05-03 11:52:00,41.0,-99.9,29.88,South,178,3.0,4.0,-999,-99.99,,,-99.99,,2013-05-03 19:52:00,
2013-05-03 12:02:00,41.0,-99.9,29.88,South,176,3.0,3.0,-999,-99.99,,,-99.99,,2013-05-03 20:02:00,
2013-05-03 12:12:00,41.0,-99.9,29.89,South,174,2.0,2.0,-999,-99.99,,,-99.99,,2013-05-03 20:12:00,
2013-05-03 12:22:00,41.0,-99.9,29.89,SE,133,-999.0,3.0,-999,-99.99,,,-99.99,,2013-05-03 20:22:00,
2013-05-03 12:32:00,41.0,-99.9,29.89,SE,133,-999.0,3.0,-999,-99.99,,,-99.99,,2013-05-03 20:32:00,
2013-05-03 12:42:00,41.0,-99.9,29.89,SE,133,-999.0,3.0,-999,-99.99,,,-99.99,,2013-05-03 20:42:00,
2013-05-03 12:52:00,41.0,-99.9,29.89,NNW,333,6.0,9.0,-999,-99.99,,,-99.99,,2013-05-03 20:52:00,
2013-05-03 13:02:00,41.0,-99.9,29.90,North,354,6.0,13.0,-999,-99.99,,,-99.99,,2013-05-03 21:02:00,
2013-05-03 13:11:00,40.0,-99.9,29.90,NNE,19,12.0,15.0,-999,-99.99,,,-99.99,,2013-05-03 21:11:00,
2013-05-03 13:22:00,40.0,-99.9,29.90,NNE,21,9.0,11.0,-999,-99.99,,,-99.99,,2013-05-03 21:22:00,
2013-05-03 13:33:00,40.0,-99.9,29.90,NNE,22,8.0,11.0,-999,-99.99,,,-99.99,,2013-05-03 21:33:00,
2013-05-03 13:43:00,39.0,-99.9,29.90,NNE,20,10.0,13.0,-999,-99.99,,,-99.99,,2013-05-03 21:43:00,
2013-05-03 13:53:00,39.0,-99.9,29.91,NNE,18,10.0,13.0,-999,-99.99,,,-99.99,,2013-05-03 21:53:00,
2013-05-03 14:03:00,39.0,-99.9,29.91,NNE,18,10.0,14.0,-999,-99.99,,,-99.99,,2013-05-03 22:03:00,
2013-05-03 14:13:00,39.0,-99.9,29.91,NNE,21,9.0,13.0,-999,-99.99,,,-99.99,,2013-05-03 22:13:00,
2013-05-03 14:22:00,39.0,-99.9,29.91,NNE,14,7.0,13.0,-999,-99.99,,,-99.99,,2013-05-03 22:22:00,
2013-05-03 14:32:00,39.0,-99.9,29.91,NNE,14,9.0,13.0,-999,-99.99,,,-99.99,,2013-05-03 22:32:00,
2013-05-03 14:42:00,39.0,-99.9,29.91,NNE,18,6.0,11.0,-999,-99.99,,,-99.99,,2013-05-03 22:42:00,
2013-05-03 14:52:00,39.0,-99.9,29.91,NNE,16,9.0,13.0,-999,-99.99,,,-99.99,,2013-05-03 22:52:00,
2013-05-03 15:02:00,39.0,-99.9,29.91,NNE,13,8.0,12.0,-999,-99.99,,,-99.99,,2013-05-03 23:02:00,
2013-05-03 15:11:00,39.0,-99.9,29.92,North,11,8.0,11.0,-999,-99.99,,,-99.99,,2013-05-03 23:11:00,
2013-05-03 15:22:00,40.0,-99.9,29.92,North,9,7.0,9.0,-999,-99.99,,,-99.99,,2013-05-03 23:22:00,
2013-05-03 15:32:00,40.0,-99.9,29.92,NNE,22,4.0,11.0,-999,-99.99,,,-99.99,,2013-05-03 23:32:00,
2013-05-03 15:41:00,40.0,-99.9,29.92,North,7,5.0,9.0,-999,-99.99,,,-99.99,,2013-05-03 23:41:00,
2013-05-03 15:52:00,40.0,-99.9,29.92,NNE,24,4.0,8.0,-999,-99.99,,,-99.99,,2013-05-03 23:52:00,
2013-05-03 16:01:00,40.0,-99.9,29.93,NNE,21,3.0,8.0,-999,-99.99,,,-99.99,,2013-05-04 00:01:00,
2013-05-03 16:11:00,39.0,-99.9,29.93,North,11,4.0,7.0,-999,-99.99,,,-99.99,,2013-05-04 00:11:00,
2013-05-03 16:23:00,40.0,-99.9,29.93,NNE,13,3.0,8.0,-999,-99.99,,,-99.99,,2013-05-04 00:23:00,
2013-05-03 16:32:00,39.0,-99.9,29.93,North,10,7.0,10.0,-999,-99.99,,,-99.99,,2013-05-04 00:32:00,
2013-05-03 16:42:00,39.0,-99.9,29.93,North,10,6.0,9.0,-999,-99.99,,,-99.99,,2013-05-04 00:42:00,
2013-05-03 16:52:00,39.0,-99.9,29.92,North,9,6.0,9.0,-999,-99.99,,,-99.99,,2013-05-04 00:52:00,
2013-05-03 17:01:00,39.0,-99.9,29.92,NNE,18,8.0,12.0,-999,-99.99,,,-99.99,,2013-05-04 01:01:00,
2013-05-03 17:11:00,39.0,-99.9,29.92,NNE,20,5.0,9.0,-999,-99.99,,,-99.99,,2013-05-04 01:11:00,
2013-05-03 17:22:00,39.0,-99.9,29.92,NNE,14,8.0,10.0,-999,-99.99,,,-99.99,,2013-05-04 01:22:00,
2013-05-03 17:32:00,39.0,-99.9,29.92,NNE,14,7.0,11.0,-999,-99.99,,,-99.99,,2013-05-04 01:32:00,
2013-05-03 17:42:00,39.0,-99.9,29.92,NNE,17,7.0,11.0,-999,-99.99,,,-99.99,,2013-05-04 01:42:00,
2013-05-03 17:52:00,39.0,-99.9,29.92,NNE,13,9.0,11.0,-999,-99.99,,,-99.99,,2013-05-04 01:52:00,
2013-05-03 18:02:00,39.0,-99.9,29.92,North,8,5.0,11.0,-999,-99.99,,,-99.99,,2013-05-04 02:02:00,
2013-05-03 18:11:00,39.0,-99.9,29.92,North,9,7.0,9.0,-999,-99.99,,,-99.99,,2013-05-04 02:11:00,
2013-05-03 18:21:00,39.0,-99.9,29.92,NNE,13,6.0,11.0,-999,-99.99,,,-99.99,,2013-05-04 02:21:00,
2013-05-03 18:32:00,38.0,-99.9,29.92,North,5,8.0,12.0,-999,-99.99,,,-99.99,,2013-05-04 02:32:00,
2013-05-03 18:42:00,38.0,-99.9,29.93,North,3,6.0,10.0,-999,-99.99,,,-99.99,,2013-05-04 02:42:00,
2013-05-03 18:52:00,38.0,-99.9,29.93,NNE,14,7.0,11.0,-999,-99.99,,,-99.99,,2013-05-04 02:52:00,
2013-05-03 19:02:00,38.0,-99.9,29.93,NNE,12,8.0,11.0,-999,-99.99,,,-99.99,,2013-05-04 03:02:00,
2013-05-03 19:11:00,38.0,-99.9,29.93,NNE,17,8.0,11.0,-999,-99.99,,,-99.99,,2013-05-04 03:11:00,
2013-05-03 19:22:00,38.0,-99.9,29.92,NNE,19,7.0,10.0,-999,-99.99,,,-99.99,,2013-05-04 03:22:00,
2013-05-03 19:33:00,38.0,-99.9,29.93,North,4,8.0,11.0,-999,-99.99,,,-99.99,,2013-05-04 03:33:00,
2013-05-03 19:43:00,38.0,-99.9,29.92,NNE,17,7.0,12.0,-999,-99.99,,,-99.99,,2013-05-04 03:43:00,
2013-05-03 19:53:00,37.0,-99.9,29.91,North,7,8.0,12.0,-999,-99.99,,,-99.99,,2013-05-04 03:53:00,
2013-05-03 20:02:00,37.0,-99.9,29.92,North,7,8.0,13.0,-999,-99.99,,,-99.99,,2013-05-04 04:02:00,
2013-05-03 20:13:00,37.0,-99.9,29.92,North,6,6.0,9.0,-999,-99.99,,,-99.99,,2013-05-04 04:13:00,
2013-05-03 20:23:00,36.0,-99.9,29.92,North,7,6.0,9.0,-999,-99.99,,,-99.99,,2013-05-04 04:23:00,
2013-05-03 20:33:00,36.0,-99.9,29.91,NNE,15,6.0,8.0,-999,-99.99,,,-99.99,,2013-05-04 04:33:00,
2013-05-03 20:43:00,37.0,-99.9,29.91,NNE,14,5.0,8.0,-999,-99.99,,,-99.99,,2013-05-04 04:43:00,
2013-05-03 20:53:00,37.0,-99.9,29.91,NNE,18,4.0,6.0,-999,-99.99,,,-99.99,,2013-05-04 04:53:00,
2013-05-03 21:02:00,37.0,-99.9,29.91,North,6,6.0,8.0,-999,-99.99,,,-99.99,,2013-05-04 05:02:00,
2013-05-03 21:12:00,37.0,-99.9,29.91,NE,35,6.0,7.0,-999,-99.99,,,-99.99,,2013-05-04 05:12:00,
2013-05-03 21:22:00,37.0,-99.9,29.91,ENE,57,2.0,4.0,-999,-99.99,,,-99.99,,2013-05-04 05:22:00,
2013-05-03 21:32:00,37.0,-99.9,29.91,NNW,333,-999.0,4.0,-999,-99.99,,,-99.99,,2013-05-04 05:32:00,
2013-05-03 21:43:00,37.0,-99.9,29.91,NNW,335,3.0,6.0,-999,-99.99,,,-99.99,,2013-05-04 05:43:00,
2013-05-03 21:52:00,37.0,-99.9,29.91,NNW,336,4.0,6.0,-999,-99.99,,,-99.99,,2013-05-04 05:52:00,
2013-05-03 22:02:00,37.0,-99.9,29.91,North,1,3.0,5.0,-999,-99.99,,,-99.99,,2013-05-04 06:02:00,
2013-05-03 22:12:00,37.0,-99.9,29.91,North,1,3.0,5.0,-999,-99.99,,,-99.99,,2013-05-04 06:12:00,
2013-05-03 22:22:00,37.0,-99.9,29.92,NNE,31,1.0,2.0,-999,-99.99,,,-99.99,,2013-05-04 06:22:00,
2013-05-03 22:32:00,37.0,-99.9,29.91,NNW,338,3.0,5.0,-999,-99.99,,,-99.99,,2013-05-04 06:32:00,
2013-05-03 22:42:00,36.0,-99.9,29.92,NNW,339,3.0,7.0,-999,-99.99,,,-99.99,,2013-05-04 06:42:00,
2013-05-03 22:52:00,35.0,-99.9,29.91,WNW,291,7.0,10.0,-999,-99.99,,,-99.99,,2013-05-04 06:52:00,
2013-05-03 23:01:00,35.0,-99.9,29.91,NW,320,9.0,13.0,-999,-99.99,,,-99.99,,2013-05-04 07:01:00,
2013-05-03 23:11:00,35.0,-99.9,29.91,NNW,328,8.0,10.0,-999,-99.99,,,-99.99,,2013-05-04 07:11:00,
2013-05-03 23:22:00,35.0,-99.9,29.91,NW,312,6.0,13.0,-999,-99.99,,,-99.99,,2013-05-04 07:22:00,
2013-05-03 23:32:00,35.0,-99.9,29.91,NW,307,10.0,16.0,-999,-99.99,,,-99.99,,2013-05-04 07:32:00,
2013-05-03 23:42:00,35.0,-99.9,29.90,WNW,300,12.0,16.0,-999,-99.99,,,-99.99,,2013-05-04 07:42:00,
2013-05-03 23:52:00,35.0,-99.9,29.89,NW,320,5.0,14.0,-999,-99.99,,,-99.99,,2013-05-04 07:52:00,